Location: Baix
(44.7118°N, 4.7648°E)
Time: 10:50:17
(UTC+00:00)

Vanguard 2 Rocket - Pass Details

Date: 28 November 2020
Orbit: 554 x 3325 km, 32.9° (Epoch: 21 January)

Event Time Altitude Azimuth Distance (km) Brightness Sun altitude
Rises 05:03:52 0° 196° (SSW) 6,758 11.3 -19.2°
Reaches altitude 10° 05:09:40 10° 184° (S) 6,028 11.2 -18.2°
Maximum altitude 05:23:15 24° 140° (SE) 5,175 11.4 -15.8°
Drops below altitude 10° 05:36:29 10° 96° (E) 5,934 12.4 -13.6°
Sets 05:41:59 0° 84° (E) 6,643 12.6 -12.7°
